Location: Poughquag
(41.6090°N, 73.6820°W)
Time: 23:50:46
(UTC-05:00)

Vanguard 2 Rocket - Visible Passes

Search period start: 28 November 2023 00:00
Search period end: 08 December 2023 00:00
Orbit: 553 x 3312 km, 32.9° (Epoch: 28 November)

Date Brightness Start Highest point End Pass type
(mag) Time Alt. Az. Time Alt. Az. Time Alt. Az.
28 Nov 9.6 17:29:08 10° WSW 17:48:51 62° S 18:01:17 17° E visible
28 Nov 8.9 19:47:23 10° W 20:05:02 56° SSW 20:06:55 53° S visible
28 Nov 10.2 22:07:04 10° W 22:12:33 21° WSW 22:12:33 21° WSW visible
29 Nov 10.0 16:25:28 10° WSW 16:45:00 59° SSE 17:00:55 10° E visible
29 Nov 9.2 18:42:43 10° W 19:01:55 62° S 19:08:51 36° SE visible
29 Nov 9.5 21:01:51 10° W 21:14:29 38° SW 21:14:29 38° SW visible
30 Nov 9.6 17:38:24 10° WSW 17:58:18 64° S 18:10:50 18° ESE visible
30 Nov 9.1 19:56:53 10° W 20:14:22 51° SSW 20:16:28 48° S visible
30 Nov 10.4 22:17:24 10° W 22:22:07 17° WSW 22:22:07 17° WSW visible
01 Dec 9.9 16:34:35 10° WSW 16:54:21 63° S 17:10:41 10° E visible
01 Dec 9.3 18:52:10 10° W 19:11:19 59° SSW 19:18:29 35° SE visible
01 Dec 9.8 21:11:40 10° W 21:24:08 33° SW 21:24:08 33° SW visible
02 Dec 9.7 17:47:48 10° W 18:07:43 64° S 18:20:34 17° ESE visible
02 Dec 9.4 20:06:28 10° W 20:23:29 44° SSW 20:26:14 41° S visible
02 Dec 10.5 22:28:39 10° W 22:31:52 14° WSW 22:31:52 14° WSW visible
03 Dec 9.9 16:43:55 10° WSW 17:03:43 65° S 17:20:23 10° ESE visible
03 Dec 9.5 19:01:40 10° W 19:20:33 54° SSW 19:28:22 31° SE visible
03 Dec 10.0 21:21:49 10° W 21:34:02 26° SW 21:34:02 26° SW visible
04 Dec 9.8 17:57:17 10° W 18:17:02 61° SSW 18:30:36 15° ESE visible
04 Dec 9.7 20:16:13 10° W 20:32:23 37° SW 20:36:16 33° S visible
05 Dec 9.9 16:53:23 10° W 17:13:04 65° S 17:29:58 10° ESE visible
05 Dec 9.8 19:11:15 10° W 19:29:37 47° SSW 19:38:36 25° SSE visible
05 Dec 10.3 21:32:40 10° W 21:43:05 19° SW 21:44:16 19° SW visible
06 Dec 9.9 18:06:50 10° W 18:26:15 56° SSW 18:41:02 11° SE visible
06 Dec 10.0 20:26:17 10° W 20:41:04 30° SW 20:46:43 24° S visible
07 Dec 10.0 17:02:55 10° W 17:22:22 62° SSW 17:39:26 10° ESE visible
07 Dec 10.1 19:21:00 10° W 19:38:30 40° SW 19:49:18 17° SSE visible
07 Dec 10.6 21:45:18 10° WSW 21:51:31 13° SW 21:55:00 12° SW visible
